Back to catalog

COSMOS 1372

AliveNavigationLEO
NORAD 13243·PAYLOAD·🇷🇺 Russia

Launched Jun 1, 1982 from Baikonur Cosmodrome

Loading…

Next Passes (next 24 hours)

TLE

FreshSource: Space-Track

Epoch: Sep 14, 2026, 14:08 UTC

1 13243U 82052A   26257.58948000 -.00000075  00000-0  12844-4 0  9992
2 13243  64.9049  14.9055 0051433 261.4824  98.0406 13.86116853658697

Track COSMOS 1372 in real time with AllMySat

Download on the App Store